Weather History for KSBN - April, 2013

Change the Weather History Date:

Thursday, April 25, 2013

  Actual Average Record
Temperature  
Mean Temperature 42 °F 53 °F  
Max Temperature 51 °F 63 °F 87 °F (1990)
Min Temperature 33 °F 42 °F 23 °F (1919)
Degree Days  
Heating Degree Days 23 13  
Month to date heating degree days 497 429  
Since 1 July heating degree days 5908 5973  
Cooling Degree Days 0 0  
Month to date cooling degree days 0 0  
Year to date cooling degree days 0 1  
Moisture  
Dew Point 30 °F    
Average Humidity 58    
Maximum Humidity 76    
Minimum Humidity 39    
Precipitation  
Precipitation T in 0.11 in 2.48 in (2007)
Month to date precipitation 5.16 2.66  
Year to date precipitation 13.91 9.32  
Snow  
Snow 0.00 in 0.10 in T in (1976)
Month to date snowfall T 1.4  
Since 1 July snowfall 59.9 66.6  
Snow Depth 0.00 in    
Sea Level Pressure  
Sea Level Pressure 30.22 in    
Wind  
Wind Speed 11 mph (West)    
Max Wind Speed 24 mph    
Max Gust Speed 29 mph    
Visibility 10 miles    
Events Rain    
T = Trace of Precipitation, MM = Missing Value Source: NWS Daily Summary

Daily Weather History Graph

Daily Weather History Graph

Search for Another Location

Airport or City:

Trip Planner

Search our weather history database for the weather conditions in past years. The results will help you decide how hot, cold, wet, or windy it might be!

Date:

Astronomy

Apr. 25, 2013 Rise Set
Actual Time 6:49 AM EDT 8:37 PM EDT
Civil Twilight 6:20 AM EDT 9:07 PM EDT
Nautical Twilight 5:44 AM EDT 9:43 PM EDT
Astronomical Twilight 5:05 AM EDT 10:22 PM EDT
Moon 8:50 PM EDT (4/25) 6:32 AM EDT (4/25)
Length of Visible Light 14h 46m
Length of Day
13h 47m
Full, 100% of the Moon is Illuminated
Apr 25
Full
Apr 25
Full
May 2
Last Quarter
May 9
New
May 18
First Quarter

Hourly Weather History & Observations

Time (EDT) Temp. Windchill Dew Point Humidity Pressure Visibility Wind Dir Wind Speed Gust Speed Precip Events Conditions
12:54 AM 39.0 °F 33.4 °F 30.0 °F 70% 30.17 in 10.0 mi SSW 8.1 mph - N/A   Clear
1:54 AM 37.9 °F 32.1 °F 30.0 °F 73% 30.16 in 10.0 mi SSW 8.1 mph - N/A   Clear
2:54 AM 37.0 °F 31.0 °F 30.0 °F 76% 30.14 in 10.0 mi SSW 8.1 mph - N/A   Clear
3:54 AM 37.0 °F 30.4 °F 30.0 °F 76% 30.14 in 10.0 mi SW 9.2 mph - N/A   Clear
4:54 AM 37.0 °F 30.4 °F 30.0 °F 76% 30.12 in 10.0 mi SSW 9.2 mph - N/A   Clear
5:54 AM 39.0 °F 32.8 °F 30.0 °F 70% 30.13 in 10.0 mi SSW 9.2 mph - N/A   Mostly Cloudy
6:54 AM 39.9 °F 32.5 °F 30.0 °F 68% 30.12 in 10.0 mi SW 12.7 mph - N/A   Overcast
7:54 AM 39.9 °F 32.1 °F 30.9 °F 70% 30.12 in 10.0 mi SW 13.8 mph - 0.00 in Rain Light Rain
8:54 AM 41.0 °F 33.1 °F 33.1 °F 73% 30.14 in 10.0 mi SW 15.0 mph - 0.00 in   Overcast
9:54 AM 45.0 °F 37.6 °F 34.0 °F 65% 30.14 in 10.0 mi WSW 17.3 mph - N/A   Mostly Cloudy
10:21 AM 46.4 °F 40.4 °F 33.8 °F 62% 30.13 in 10.0 mi West 13.8 mph 25.3 mph N/A   Mostly Cloudy
10:39 AM 46.4 °F 39.8 °F 35.6 °F 66% 30.14 in 10.0 mi West 16.1 mph 21.9 mph 0.00 in Rain Light Rain
10:54 AM 46.9 °F - 32.0 °F 56% 30.17 in 10.0 mi West 17.3 mph 26.5 mph 0.00 in   Mostly Cloudy
11:54 AM 48.0 °F - 30.9 °F 52% 30.20 in 10.0 mi WNW 20.7 mph 27.6 mph N/A   Mostly Cloudy
12:54 PM 46.0 °F 38.0 °F 28.0 °F 50% 30.23 in 10.0 mi WNW 21.9 mph 28.8 mph 0.00 in   Partly Cloudy
1:54 PM 48.9 °F - 30.0 °F 48% 30.25 in 10.0 mi WNW 16.1 mph 25.3 mph N/A   Mostly Cloudy
2:54 PM 48.9 °F - 30.0 °F 48% 30.27 in 10.0 mi NW 16.1 mph 21.9 mph N/A   Mostly Cloudy
3:54 PM 48.9 °F - 28.9 °F 46% 30.28 in 10.0 mi WNW 12.7 mph - N/A   Scattered Clouds
4:54 PM 50.0 °F - 28.0 °F 43% 30.29 in 10.0 mi NW 17.3 mph 21.9 mph N/A   Partly Cloudy
4:59 PM 50.0 °F - 28.4 °F 43% 30.27 in 10.0 mi WNW 15.0 mph 23.0 mph N/A   Clear
5:01 PM 50.0 °F - 28.4 °F 43% 30.27 in 10.0 mi WNW 15.0 mph 23.0 mph N/A   Scattered Clouds
5:54 PM 50.0 °F - 27.0 °F 41% 30.29 in 10.0 mi NW 12.7 mph - N/A   Partly Cloudy
6:01 PM 48.2 °F - 28.4 °F 46% 30.28 in 10.0 mi WNW 9.2 mph 16.1 mph N/A   Partly Cloudy
6:54 PM 48.9 °F - 28.0 °F 44% 30.31 in 10.0 mi NW 10.4 mph - N/A   Partly Cloudy
7:54 PM 46.9 °F - 27.0 °F 46% 30.32 in 10.0 mi WNW 8.1 mph - N/A   Clear
8:54 PM 42.1 °F 40.2 °F 27.0 °F 55% 30.33 in 10.0 mi NW 3.5 mph - N/A   Clear
9:54 PM 42.1 °F - 27.0 °F 55% 30.35 in 10.0 mi Calm Calm - N/A   Clear
10:54 PM 39.0 °F - 28.0 °F 65% 30.37 in 10.0 mi Calm Calm - N/A   Clear
11:54 PM 39.0 °F - 28.0 °F 65% 30.37 in 10.0 mi Calm Calm - N/A   Clear